{"data":{"norad_id":44520,"epoch":"2026-05-25T04:28:28.642368Z","epoch_age_seconds":62015,"freshness":"FRESH","line1":"1 44520U 19058B   26145.18644262  .00001751  00000+0  15869-3 0  9994","line2":"2 44520  97.7775 158.6164 0011961  65.8698 294.3773 14.96598829366595","mean_motion":14.96598829,"eccentricity":0.0011961,"inclination_deg":97.7775,"raan_deg":158.6164,"arg_perigee_deg":65.8698,"mean_anomaly_deg":294.3773,"bstar":0.00015869,"rev_number":36659,"period_min":96.218169632151,"perigee_km":569.09501907561,"apogee_km":585.73408950378,"semimajor_km":6955.5515542897,"source":"CELESTRAK","updated_at":"2026-05-25T13:37:55.999281Z"}}